Weather History for KCUT - September, 2013

Change the Weather History Date:

Saturday, September 14, 2013

  Actual Average Record
Temperature  
Mean Temperature 63 °F 55 °F  
Max Temperature 72 °F 69 °F 87 °F (1955)
Min Temperature 54 °F 42 °F 17 °F (1961)
Degree Days  
Heating Degree Days 2 10  
Month to date heating degree days 44 109  
Since 1 July heating degree days 141 263  
Cooling Degree Days 0 0  
Month to date cooling degree days 38 11  
Year to date cooling degree days 187 177  
Growing Degree Days 12 (Base 50)    
Moisture  
Dew Point 53 °F    
Average Humidity 72    
Maximum Humidity 100    
Minimum Humidity 44    
Precipitation  
Precipitation 0.01 in 0.05 in 1.19 in (1928)
Month to date precipitation 0.94 0.85  
Year to date precipitation 16.89 15.77  
Sea Level Pressure  
Sea Level Pressure 29.87 in    
Wind  
Wind Speed 9 mph (WNW)    
Max Wind Speed 18 mph    
Max Gust Speed 26 mph    
Visibility 8 miles    
Events Fog , Rain    
T = Trace of Precipitation, MM = Missing Value Source: NWS Daily Summary

Daily Weather History Graph

Daily Weather History Graph

Search for Another Location

Airport or City:

Trip Planner

Search our weather history database for the weather conditions in past years. The results will help you decide how hot, cold, wet, or windy it might be!

Date:

Astronomy

Sep. 14, 2013 Rise Set
Actual Time 6:32 AM MDT 7:06 PM MDT
Civil Twilight 6:04 AM MDT 7:34 PM MDT
Nautical Twilight 5:29 AM MDT 8:08 PM MDT
Astronomical Twilight 4:54 AM MDT 8:44 PM MDT
Moon 3:56 PM MDT (9/14) 12:59 AM MDT (9/14)
Length of Visible Light 13h 30m
Length of Day
12h 33m
Waxing Gibbous, 73% of the Moon is Illuminated
Sep 14
Waxing Gibbous
Sep 19
Full
Sep 26
Last Quarter
Oct 4
New
Oct 11
First Quarter

Hourly Weather History & Observations

Time (MDT) Temp. Dew Point Humidity Pressure Visibility Wind Dir Wind Speed Gust Speed Precip Events Conditions
12:53 AM 54.0 °F 54.0 °F 100% 29.85 in 0.2 mi SW 5.8 mph - 0.01 in Fog Fog
1:53 AM 55.0 °F 55.0 °F 100% 29.81 in 0.2 mi SW 8.1 mph - N/A Fog Fog
2:53 AM 55.9 °F 55.9 °F 100% 29.80 in 0.2 mi SW 4.6 mph - N/A Fog Fog
3:53 AM 55.9 °F 55.9 °F 100% 29.79 in 0.2 mi Variable 5.8 mph - 0.01 in Fog Fog
4:25 AM 55.4 °F 55.4 °F 100% 29.92 in 0.8 mi West 9.2 mph - N/A   Mist
4:32 AM 55.4 °F 55.4 °F 100% 29.92 in 1.2 mi WSW 8.1 mph - N/A   Overcast
4:47 AM 55.4 °F 55.4 °F 100% 29.92 in 3.0 mi Variable 5.8 mph - N/A   Overcast
4:53 AM 55.9 °F 55.9 °F 100% 29.79 in 5.0 mi WSW 6.9 mph - N/A   Overcast
5:14 AM 55.4 °F 55.4 °F 100% 29.92 in 8.0 mi WSW 6.9 mph - N/A   Overcast
5:48 AM 55.4 °F 53.6 °F 94% 29.92 in 8.0 mi WSW 6.9 mph - N/A   Overcast
6:01 AM 55.4 °F 53.6 °F 94% 29.92 in 9.0 mi West 6.9 mph - N/A   Overcast
6:32 AM 55.4 °F 55.4 °F 100% 29.93 in 7.0 mi West 9.2 mph 17.3 mph N/A   Overcast
6:53 AM 55.9 °F 54.0 °F 93% 29.81 in 8.0 mi West 9.2 mph - N/A   Overcast
7:16 AM 55.4 °F 53.6 °F 94% 29.94 in 10.0 mi West 9.2 mph - N/A   Overcast
7:53 AM 55.9 °F 54.0 °F 93% 29.81 in 10.0 mi WSW 6.9 mph - N/A   Mostly Cloudy
8:06 AM 57.2 °F 55.4 °F 94% 29.94 in 10.0 mi WSW 4.6 mph - N/A   Partly Cloudy
8:29 AM 59.0 °F 55.4 °F 88% 29.94 in 10.0 mi West 8.1 mph - N/A   Partly Cloudy
8:53 AM 60.1 °F 54.0 °F 80% 29.80 in 10.0 mi West 6.9 mph - N/A   Partly Cloudy
9:53 AM 63.0 °F 52.0 °F 67% 29.80 in 10.0 mi WNW 12.7 mph - N/A   Clear
10:53 AM 66.0 °F 51.1 °F 59% 29.79 in 10.0 mi WNW 11.5 mph 16.1 mph N/A   Clear
11:53 AM 69.1 °F 50.0 °F 51% 29.78 in 10.0 mi Variable 6.9 mph 18.4 mph N/A   Clear
12:53 PM 70.0 °F 48.0 °F 46% 29.79 in 10.0 mi WNW 10.4 mph 17.3 mph N/A   Clear
1:53 PM 71.1 °F 48.9 °F 45% 29.78 in 10.0 mi WSW 10.4 mph 19.6 mph N/A   Clear
2:53 PM 71.1 °F 48.0 °F 44% 29.78 in 10.0 mi NW 6.9 mph - N/A   Partly Cloudy
3:53 PM 71.1 °F 50.0 °F 47% 29.79 in 10.0 mi West 11.5 mph 16.1 mph N/A   Scattered Clouds
4:53 PM 71.1 °F 50.0 °F 47% 29.81 in 10.0 mi North 10.4 mph - N/A   Clear
5:53 PM 63.0 °F 51.1 °F 65% 29.86 in 10.0 mi Variable 6.9 mph 17.3 mph N/A   Overcast
6:53 PM 62.1 °F 48.9 °F 62% 29.89 in 10.0 mi NNE 13.8 mph 18.4 mph N/A   Overcast
7:53 PM 60.1 °F 51.1 °F 72% 29.91 in 10.0 mi NNE 11.5 mph 17.3 mph N/A   Overcast
8:53 PM 59.0 °F 52.0 °F 78% 29.92 in 10.0 mi NNE 10.4 mph - N/A   Overcast
9:53 PM 59.0 °F 52.0 °F 78% 29.93 in 10.0 mi NE 13.8 mph 19.6 mph N/A   Overcast
10:49 PM 57.2 °F 53.6 °F 88% 30.11 in 10.0 mi NE 9.2 mph - 0.00 in Rain Light Rain
10:53 PM 57.0 °F 53.1 °F 87% 29.94 in 10.0 mi NE 8.1 mph - 0.00 in   Overcast
11:53 PM 57.0 °F 52.0 °F 83% 29.96 in 10.0 mi North 9.2 mph - N/A   Overcast